Погода в Салехарде

Погода в Салехарде : погода сейчас, прогноз погоды и архив. Всё, что Вы хотите узнать о погоде в Салехарде!

Хотите узнать прогноз погоды в Салехарде? Тогда Вам сюда: Погода в Салехарде

Поиск расширенной информации на нашем сайте:

Другие новости

Новости СМИ2

Главная страница сайта

Новости сайта

03.07.2017

Напоминаем, что на нашем специализированном сайте Метеоцентр.Азия вы можете получить высокодетализированные автоматические прогнозы погоды по пунктам России, СНГ и мира в авиационном формате (включающие направление и скорость ветра, видимость, явления погоды, количество и форму облачности, нижнюю и верхнюю границу облачности).


Погода в Салехарде - сегодня

Время (UTC), дата Ветер
(°,м/с) 
Видим.   Явления Облачность Т
(°С)
Тd
(°С)
f(%) Тe
(°С)
Pmin
(гПа)
dP
(гПа)
Po
(мм)
O2
(г/м3)
Тmin Tmax R s Состояние
почвы
00 19.02.18 300 (СЗ) 10 км    8/0 средняя, верхняя 
[Ac trans|Ci fib]
-11.9 -16.1 71 -15  1016.9  1.4  761  322           
03 19.02.18 310 (СЗ) 4000 м  слаб. снег  10/0 средняя 
[Ac As]
-13.8 -18.2 69 -17  1018.5  1.6  762  325  -13.8    0.0  61  равномерный
сухой снег
100% 
09 19.02.18 тихо ()   20000 м  {снег}  3/0 средняя 
[Ac trans]
-12.6 -18.3 62 -13  1022.5  2.4  765  325           
12 19.02.18 050 (СВ) 20000 м  {снег}  5/0 средняя, верхняя 
[Ac trans|Ci fib]
-20.7 -23.2 80 -21  1024.6  767  336           
18 19.02.18 040 (СВ) 10 км    4/0 средняя, верхняя 
[Ac trans|Ci fib]
-29.6 -33 72 -30  1027.1  769  349           
21 19.02.18 тихо ()   10 км    3/0 верхняя 
[Ci fib]
-33.5 -37.7 66 -34  1027.8  0.6  769  355           
00 20.02.18 тихо ()   10 км    ясно 
-33.7 -38 65 -34  1028.5  0.7  770  356           
03 20.02.18 тихо ()   10 км    5/0 средняя, верхняя 
[Ac lent|Ci fib]
-34.4 -38.7 65 -34  1028.8  0.3  770  357  -35.6      61  равномерный
сухой снег
100% 
06 20.02.18 030 (СВ) 20000 м    6/0 средняя, верхняя 
[Ac trans|Ci fib]
-32 -36.2 66 -33  1029.1  0.3  770  354           
09 20.02.18 тихо ()   20000 м    ясно 
-21.7 -26.2 67 -22  1029.3  0.2  770  339           
12 20.02.18 330 (СЗ) 20000 м    ясно 
-27.9 -31.5 71 -29  1029.4  0.1  770  348           
15 20.02.18 330 (СЗ) 10 км    ясно 
-29.3 -32.7 72 -33  1029.5  0.1  770  350    -20.7       
18 20.02.18 330 (СЗ) 10 км    ясно 
-32.8 -36.9 67 -34  1029.8  0.2  771  355           
21 20.02.18 030 (СВ) 10 км    ясно 
-30.5 -34.3 69 -36  1029.9  0.1  771  352           
00 21.02.18 030 (СВ) 10 км    ясно 
-31.4 -35.4 68 -35  1029.9  771  353           
03 21.02.18 050 (СВ) 10 км    6/0 средняя 
[Ac trans]
-31.6 -35.7 67 -39  1030  0.2  771  353  -33.7      61  равномерный
сухой снег
100% 
06 21.02.18 050 (СВ) 20000 м  позёмок  10/0 средняя, верхняя 
[Ac trans|Ci fib]
-30.8 -34.9 67 -38  1029.9  0.1  771  352           
09 21.02.18 050 (СВ) 20000 м    10/0 верхняя 
[Ci fib]
-29.9 -33.9 68 -37  1029.8  0.1  771  351           
12 21.02.18 040 (СВ) 10 км  слаб. снег  10/0 средняя, верхняя 
[Ac trans|Cs]
-30.5 -34.6 67 -40  1029.5  -0.3  770  351           
15 21.02.18 040 (СВ) 7-10{12}  4000 м  слаб. снег  10/0 средняя, верхняя 
[Ac trans|Cs]
-29.1 -33.1 68 -39  1029.5  770  349    -29.1  0.0     
03 22.02.18 040 (СВ) 8-13{13}  4000 м  слаб. снег  10/0 средняя, верхняя 
[Ac trans|Cs]
-27.6 -31.4 70 -38  1027.6  -0.6  769  347  -29.4    0.3  60  равномерный
сухой снег
100% 
12 22.02.18 040 (СВ) 7-11{13}  10 км  позёмок  10/10 150 м 
[St]
-25.1 -28.6 73 -34  1027  -0.3  769  343           
15 22.02.18 050 (СВ) 7-10{13}  4000 м  метель  9/3 120 м средняя 
[St|Ac trans]
-25.9 -29.5 72 -35  1026.9  0.1  768  344    -24.7  0.2     
03 23.02.18 050 (СВ) 6-10{11}  10 км  позёмок  10/3 600 м средняя 
[Sc diur, vesp|Ac trans]
-22.5 -25.6 76 -30  1026.5  0.2  768  339  -27.8      59  равномерный
сухой снег
100% 
15 23.02.18 050 (СВ) 6-10{10}  4000 м  слаб. снег  10/8 330 м средняя 
[Frnb|Ac As]
-18.6 -21.8 76 -26  1023.2  -0.9  766  333    -17.7  0.2     
Время (UTC), дата Ветер
(°,м/с) 
Видим.   Явления Облачность Т
(°С)
Тd
(°С)
f(%) Тe
(°С)
Pmin
(гПа)
dP
(гПа)
Po
(мм)
O2
(г/м3)
Тmin Tmax R s Состояние
почвы

Для получения пояснительной информации подведите курсор к названию столбца.

ПОГОДА в Салехарде - архив

Всё, что Вы хотите узнать о погоде в Салехарде - удобно и подробно!

Выберите нужную дату (начиная с 1 января 2015* года) и нажмите кнопку "Найти".
Будут отображены архивные сводки погоды по пункту Салехард, начиная с указанной даты.


Отображать данные в формате CSV (для использования в таблицах Excel)


Внимание! Наш архив погоды предназначен исключительно для личного некоммерческого использования в познавательных целях. Если Вам необходимы официальные справки о состоянии погоды (для производственных, юридических, коммерческих и т.п. целей), обращайтесь в органы Росгидромета.

*Примечание: данная дата относится к архиву по метеостанциям СССР (Россия, СНГ, Балтия).
Архив по метеостанциям Зарубежной Европы и Азии (кроме Китая) хранится 10 дней, по другим регионам земного шара (Китай, Африка, Америка, Австралия, Океания) - 1 день.

Салехард - район местоположения метеостанции


Название, широта, долгота, высота метеостанции:
Салехард (город) 66.5°ш. 66.7°д. 16 м над ур. моря [Российская Федерация]

Дополнительная информация

В oтличие oт бoльшинства пoгoдных сайтoв мы публикуем пoдрoбную метеoинфoрмацию в детальнoм прoфессиoнальнoм фoрмате.

Характеристики температуры и влажнoсти вoздуха измеряются на высoте 2 м в тени вдали oт зданий и деревьев.
Скoрoсть ветра измеряется на высoте 10 м (на урoвне рoста челoвека скoрoсть ветра ниже в 1.5-2 раза). Если метеoстанция нахoдится в гoрoде или в лесу, тo скoрoсть ветра занижена на 2-4 м/с пo сравнению с oткрытым местoм. Скoрoсть ветра над акватoриями крупных рек и oзёр, а также на вершинах хoлмoв на 2-5 м/с выше, чем в oбычных услoвиях.
Атмoсфернoе давление в разных тoчках местнoсти мoжет значительнo oтличаться oт давления на метеoстанции, в зависимoсти oт услoвий рельефа (при пoдъёме на 10 м давление пoнижается примернo на 1 мм рт.ст.).